Hourly Data Report for July 18, 2003

TORONTO CITY
ONTARIO

43°40'00.000" N
79°24'00.000" W
112.50 m
6158355
71508
XTO

Download Data

Hourly Data (July 2003)
Hourly Data Report for July 18, 2003
TIME
LST
Temp Definition
°C
Dew Point Definition
°C
Rel Hum Definition
%
Precip. Amount Definition
mm

Wind Dir Definition
10's deg

Wind Spd Definition
km/h
Visibility Definition
km
Stn Press Definition
kPa
Hmdx Definition


Wind Chill Definition


Weather Definition


00:00 20.2 15.6 75   LegendMM LegendMM LegendMM 100.26 25   LegendNANA
01:00 19.9 15.6 76   LegendMM LegendMM LegendMM 100.25     LegendNANA
02:00 19.5 14.2 71   LegendMM LegendMM LegendMM 100.23     LegendNANA
03:00 18.5 13.8 74   LegendMM LegendMM LegendMM 100.27     LegendNANA
04:00 17.2 13.4 78   LegendMM LegendMM LegendMM 100.23     LegendNANA
05:00 16.1 12.8 81   LegendMM LegendMM LegendMM 100.25     LegendNANA
06:00 16.5 12.9 79   LegendMM LegendMM LegendMM 100.29     LegendNANA
07:00 18.1 13.1 73   LegendMM LegendMM LegendMM 100.34     LegendNANA
08:00 20.2 13.2 64   LegendMM LegendMM LegendMM 100.31     LegendNANA
09:00 22.1 11.6 51   LegendMM LegendMM LegendMM 100.27     LegendNANA
10:00 22.9 12.0 50   LegendMM LegendMM LegendMM 100.23 25   LegendNANA
11:00 23.8 9.5 40   LegendMM LegendMM LegendMM 100.23 25   LegendNANA
12:00 23.4 11.1 46   LegendMM LegendMM LegendMM 100.22 25   LegendNANA
13:00 22.5 11.2 49   LegendMM LegendMM LegendMM 100.20     LegendNANA
14:00 23.6 11.7 47   LegendMM LegendMM LegendMM 100.18 26   LegendNANA
15:00 24.1 8.5 37   LegendMM LegendMM LegendMM 100.12 25   LegendNANA
16:00 22.9 9.2 42   LegendMM LegendMM LegendMM 100.11     LegendNANA
17:00 22.5 9.2 43   LegendMM LegendMM LegendMM 100.10     LegendNANA
18:00 22.3 8.3 41   LegendMM LegendMM LegendMM 100.08     LegendNANA
19:00 21.8 10.5 49   LegendMM LegendMM LegendMM 100.13     LegendNANA
20:00 19.8 9.4 51   LegendMM LegendMM LegendMM 100.17     LegendNANA
21:00 19.2 8.0 48   LegendMM LegendMM LegendMM 100.23     LegendNANA
22:00 18.3 9.3 56   LegendMM LegendMM LegendMM 100.25     LegendNANA
23:00 17.8 9.2 57   LegendMM LegendMM LegendMM 100.24     LegendNANA

Notes on Data Quality.

Legend

  • E = Estimated
  • M = Missing
  • NA = Not Available*
  • [empty] = Indicates an unobserved value
Date modified: